Location: Barcelona
(41.3830°N, 2.1830°E)
Time: 12:54:04
(UTC+02:00)

ISS - Pass Details

Date: 23 May 2020
Orbit: 417 x 419 km, 51.6° (Epoch: 31 May)

Event Time Altitude Azimuth Distance (km) Brightness Sun altitude
Rises 22:16:37 0° 289° (WNW) 2,363 1.5 -10.9°
Reaches altitude 10° 22:19:22 10° 314° (NW) 1,501 0.6 -11.3°
Maximum altitude 22:21:28 15° 352° (N) 1,217 -0.7 -11.6°
Drops below altitude 10° 22:23:34 10° 31° (NNE) 1,503 -0.8 -11.9°
Sets 22:26:19 0° 55° (NE) 2,369 -0.1 -12.2°
